Weather History for Newport News, VA

Change the Weather History Date:

Thursday, August 21, 2014

  Actual Average Record
Temperature  
Mean Temperature 83 °F -  
Max Temperature 91 °F 86 °F 98 °F (1968)
Min Temperature 75 °F 67 °F 44 °F (1998)
Cooling Degree Days 18    
Growing Degree Days 33 (Base 50)    
Moisture  
Dew Point 72 °F    
Average Humidity 73    
Maximum Humidity 89    
Minimum Humidity 50    
Precipitation  
Precipitation 0.00 in - - ()
Sea Level Pressure  
Sea Level Pressure 30.01 in    
Wind  
Wind Speed 3 mph (SSE)    
Max Wind Speed 7 mph    
Max Gust Speed -    
Visibility 10 miles    
Events      
Averages and records for this station are not official NWS values.
T = Trace of Precipitation, MM = Missing Value Source: NWS Daily Summary

Daily Weather History Graph

Daily Weather History Graph

Search for Another Location

Airport:

Trip Planner

Search our weather history database for the weather conditions in past years. The results will help you decide how hot, cold, wet, or windy it might be!

Date:

Astronomy

Aug. 21, 2014 Rise Set
Actual Time 6:27 AM EDT 7:49 PM EDT
Civil Twilight 6:00 AM EDT 8:17 PM EDT
Nautical Twilight 5:27 AM EDT 8:49 PM EDT
Astronomical Twilight 4:53 AM EDT 9:23 PM EDT
Moon 2:58 AM EDT (8/21) 5:15 PM EDT (8/21)
Length of Visible Light 14h 16m
Length of Day
13h 22m
Waning Crescent, 13% of the Moon is Illuminated
Aug 21
Waning Crescent
Aug 25
New
Sep 2
First Quarter
Sep 8
Full
Sep 15
Last Quarter

Hourly Weather History & Observations

Time (EDT) Temp. Heat Index Dew Point Humidity Pressure Visibility Wind Dir Wind Speed Gust Speed Precip Events Conditions
12:54 AM 78.1 °F - 70.0 °F 76% 30.01 in 10.0 mi SSE 3.5 mph - N/A   Partly Cloudy
1:54 AM 78.1 °F - 70.0 °F 76% 30.00 in 10.0 mi South 3.5 mph - N/A   Clear
2:54 AM 78.1 °F - 71.1 °F 79% 29.99 in 10.0 mi SSE 4.6 mph - N/A   Partly Cloudy
3:54 AM 75.0 °F - 70.0 °F 84% 29.98 in 10.0 mi East 3.5 mph - N/A   Clear
4:27 AM 75.2 °F - 71.6 °F 89% 29.99 in 10.0 mi Calm Calm - N/A   Mostly Cloudy
4:54 AM 75.0 °F - 70.0 °F 84% 29.99 in 7.0 mi Calm Calm - N/A   Overcast
5:36 AM 75.0 °F - 71.1 °F 87% 30.00 in 9.0 mi Calm Calm - N/A   Overcast
5:54 AM 75.9 °F - 71.1 °F 85% 30.00 in 10.0 mi Calm Calm - N/A   Overcast
6:54 AM 75.9 °F - 71.1 °F 85% 30.02 in 7.0 mi Calm Calm - N/A   Mostly Cloudy
7:54 AM 79.0 °F - 73.0 °F 82% 30.04 in 8.0 mi SW 3.5 mph - N/A   Overcast
8:54 AM 80.1 °F 84.2 °F 73.0 °F 79% 30.04 in 9.0 mi West 5.8 mph - N/A   Overcast
9:31 AM 82.0 °F 87.4 °F 73.0 °F 74% 30.05 in 10.0 mi WNW 3.5 mph - N/A   Mostly Cloudy
9:54 AM 82.9 °F 89.4 °F 73.9 °F 74% 30.05 in 10.0 mi WSW 6.9 mph - N/A   Mostly Cloudy
10:28 AM 84.0 °F 91.2 °F 73.9 °F 72% 30.05 in 10.0 mi West 5.8 mph - N/A   Scattered Clouds
10:54 AM 86.0 °F 93.8 °F 73.9 °F 67% 30.05 in 10.0 mi Variable 4.6 mph - N/A   Partly Cloudy
11:54 AM 89.1 °F 97.0 °F 73.0 °F 59% 30.03 in 10.0 mi WNW 4.6 mph - N/A   Clear
12:54 PM 91.0 °F 98.2 °F 72.0 °F 53% 30.03 in 10.0 mi SSE 4.6 mph - N/A   Clear
1:54 PM 90.0 °F 97.9 °F 73.0 °F 57% 30.03 in 10.0 mi WSW 5.8 mph - N/A   Mostly Cloudy
2:54 PM 90.0 °F 94.5 °F 69.1 °F 50% 30.01 in 10.0 mi North 5.8 mph - N/A   Partly Cloudy
3:54 PM 91.0 °F 96.6 °F 70.0 °F 50% 30.00 in 10.0 mi ENE 3.5 mph - N/A   Mostly Cloudy
4:54 PM 90.0 °F 99.0 °F 73.9 °F 59% 30.00 in 10.0 mi NNE 3.5 mph - N/A   Clear
5:54 PM 87.1 °F 95.4 °F 73.9 °F 65% 29.99 in 10.0 mi ESE 6.9 mph - N/A   Clear
6:54 PM 86.0 °F 93.8 °F 73.9 °F 67% 30.00 in 10.0 mi ESE 6.9 mph - N/A   Scattered Clouds
7:54 PM 84.0 °F 91.2 °F 73.9 °F 72% 29.99 in 10.0 mi Calm Calm - N/A   Clear
8:54 PM 81.0 °F 85.8 °F 73.0 °F 77% 30.00 in 10.0 mi East 3.5 mph - N/A   Clear
9:54 PM 80.1 °F 83.8 °F 72.0 °F 76% 30.01 in 10.0 mi Calm Calm - N/A   Clear
10:54 PM 78.1 °F - 73.0 °F 84% 30.00 in 10.0 mi Calm Calm - N/A   Clear
11:54 PM 82.9 °F 89.4 °F 73.9 °F 74% 29.99 in 10.0 mi Calm Calm - N/A   Scattered Clouds